User: anonymous   Login
Location: Unspecified
(0.0000°N, 0.0000°E)
Time: 16:32:04
(UTC+00:00)
Language:

COSMOS 2468 - Orbit

View from above orbital plane
View from above orbital plane
View from above satellite
View from above satellite

Ground track
Ground track

The orbit data is extracted from the following two-line orbital elements,

1 37154U 10043C   14353.77081387  .00000013  00000-0  22790-4 0  3492
2 37154 082.4588 169.7665 0014191 119.1709 241.0793 12.42893054194201
Epoch (UTC): 19 December 2014 18:29:58
Eccentricity: 0.0014191
inclination: 82.4588°
perigee height: 1483 km
apogee height: 1505 km
right ascension of ascending node: 169.7665°
argument of perigee: 119.1709°
revolutions per day: 12.42893054
mean anomaly at epoch: 241.0793°
orbit number at epoch: 19420

The dashed part of the orbit path shows where the satellite is in the earth's shadow,  

DLR